Location: Bucharest
(44.4268°N, 26.1025°E)
Time: 17:54:28
(UTC+03:00)

ESTCUBE 1 - Pass Details

Date: 04 July 2022
Orbit: 645 x 657 km, 97.9° (Epoch: 18 August)

Event Time Altitude Azimuth Distance (km) Brightness Sun altitude
Exits shadow 22:41:03 19° 123° (ESE) 1,518 ? -13.6°
Maximum altitude 22:43:36 35° 69° (ENE) 1,043 ? -13.8°
Drops below altitude 10° 22:47:41 10° 4° (N) 2,062 ? -14.3°
Sets 22:50:02 0° 356° (N) 2,979 ? -14.5°
